• In Sweden
  • List of Countries
  • For 7 days
  • Water Temperature
  • Satellite Maps
  • Weather Map
  • Weather Widgets
  • user-avatar
    Login

    Hourly Weather Ipswich

    Today, 22 November, Wednesday

    Time Temperature Precipitation Wind Pressure Humidity
    00:00 +12°C° 0 mm 9 mps 751 mmHg 85%
    01:00 +12°C° 0 mm 9 mps 751 mmHg 84%
    02:00 +12°C° 0 mm 10 mps 751 mmHg 83%
    03:00 +12°C° 0 mm 10 mps 750 mmHg 81%
    04:00 +12°C° 0 mm 10 mps 750 mmHg 81%
    05:00 +12°C° 0 mm 10 mps 750 mmHg 80%
    06:00 +12°C° 0 mm 10 mps 749 mmHg 80%
    07:00 +12°C° 0 mm 10 mps 749 mmHg 78%
    08:00 +12°C° 0 mm 10 mps 749 mmHg 77%
    09:00 +12°C° 0 mm 10 mps 749 mmHg 76%
    10:00 +13°C° 0 mm 11 mps 749 mmHg 72%
    11:00 +14°C° 0 mm 11 mps 748 mmHg 67%
    12:00 +14°C° 0 mm 12 mps 748 mmHg 62%
    13:00 +14°C° 0 mm 11 mps 747 mmHg 62%
    14:00 +14°C° 0 mm 11 mps 747 mmHg 61%
    15:00 +13°C° 0 mm 11 mps 746 mmHg 61%
    16:00 +13°C° 0 mm 11 mps 746 mmHg 60%
    17:00 +13°C° 0 mm 12 mps 745 mmHg 60%
    18:00 +13°C° 0 mm 12 mps 744 mmHg 59%
    19:00 +13°C° 0 mm 13 mps 744 mmHg 60%
    20:00 +13°C° 0 mm 13 mps 743 mmHg 61%
    21:00 +14°C° 0 mm 14 mps 743 mmHg 63%
    22:00 +14°C° 0 mm 14 mps 742 mmHg 63%
    23:00 +14°C° 0 mm 14 mps 742 mmHg 64%

    Tomorrow, 23 November, Thursday

    Time Temperature Precipitation Wind Pressure Humidity
    00:00 +14°C° 0 mm 15 mps 741 mmHg 64%
    01:00 +14°C° 0.2 mm 15 mps 740 mmHg 67%
    02:00 +14°C° 0.2 mm 14 mps 740 mmHg 71%
    03:00 +13°C° 0.2 mm 14 mps 739 mmHg 74%
    04:00 +13°C° 0.5 mm 13 mps 739 mmHg 75%
    05:00 +13°C° 0.5 mm 12 mps 739 mmHg 77%
    06:00 +13°C° 0.5 mm 11 mps 740 mmHg 78%
    07:00 +12°C° 0.1 mm 11 mps 741 mmHg 76%
    08:00 +11°C° 0.1 mm 11 mps 742 mmHg 74%
    09:00 +11°C° 0.1 mm 11 mps 743 mmHg 72%
    10:00 +9°C° 0 mm 11 mps 745 mmHg 65%
    11:00 +9°C° 0 mm 11 mps 746 mmHg 58%
    12:00 +9°C° 0 mm 11 mps 748 mmHg 50%
    13:00 +8°C° 0 mm 10 mps 749 mmHg 52%
    14:00 +8°C° 0 mm 10 mps 750 mmHg 53%
    15:00 +8°C° 0 mm 9 mps 751 mmHg 55%
    16:00 +7°C° 0 mm 8 mps 751 mmHg 58%
    17:00 +8°C° 0 mm 7 mps 752 mmHg 62%
    18:00 +7°C° 0 mm 6 mps 753 mmHg 65%
    19:00 +7°C° 0.2 mm 5 mps 753 mmHg 68%
    20:00 +7°C° 0.2 mm 4 mps 753 mmHg 71%
    21:00 +8°C° 0.2 mm 3 mps 753 mmHg 74%
    22:00 +6°C° 1.6 mm 4 mps 752 mmHg 79%
    23:00 +6°C° 1.6 mm 4 mps 752 mmHg 84%

    Day after tomorrow, 24 November, Friday

    Time Temperature Precipitation Wind Pressure Humidity
    00:00 +6°C° 1.6 mm 5 mps 751 mmHg 90%
    01:00 +5°C° 0.7 mm 5 mps 751 mmHg 87%
    02:00 +4°C° 0.7 mm 6 mps 751 mmHg 84%
    03:00 +4°C° 0.7 mm 6 mps 751 mmHg 81%
    04:00 +5°C° 0 mm 5 mps 751 mmHg 81%
    05:00 +5°C° 0 mm 4 mps 752 mmHg 81%
    06:00 +5°C° 0 mm 4 mps 752 mmHg 81%
    07:00 +4°C° 0 mm 3 mps 753 mmHg 80%
    08:00 +4°C° 0 mm 3 mps 754 mmHg 79%
    09:00 +4°C° 0 mm 3 mps 755 mmHg 79%
    10:00 +5°C° 0 mm 3 mps 755 mmHg 74%
    11:00 +7°C° 0 mm 3 mps 755 mmHg 69%
    12:00 +7°C° 0 mm 3 mps 756 mmHg 65%
    13:00 +7°C° 0 mm 2 mps 756 mmHg 66%
    14:00 +8°C° 0 mm 1 mps 756 mmHg 68%
    15:00 +8°C° 0 mm 1 mps 756 mmHg 69%
    16:00 +7°C° 0 mm 1 mps 756 mmHg 71%
    17:00 +7°C° 0 mm 1 mps 756 mmHg 73%
    18:00 +6°C° 0 mm 1 mps 756 mmHg 76%
    19:00 +6°C° 0 mm 1 mps 756 mmHg 76%
    20:00 +6°C° 0 mm 1 mps 756 mmHg 76%
    21:00 +6°C° 0 mm 1 mps 756 mmHg 77%
    22:00 +5°C° 0.2 mm 2 mps 755 mmHg 78%
    23:00 +5°C° 0.2 mm 2 mps 755 mmHg 80%

    25 November, Saturday

    Time Temperature Precipitation Wind Pressure Humidity
    00:00 +4°C° 0.2 mm 3 mps 755 mmHg 81%
    01:00 +4°C° 0.4 mm 3 mps 755 mmHg 82%
    02:00 +3°C° 0.4 mm 4 mps 755 mmHg 83%
    03:00 +2°C° 0.4 mm 5 mps 754 mmHg 84%
    04:00 +2°C° 0.1 mm 5 mps 755 mmHg 80%
    05:00 +2°C° 0.1 mm 6 mps 755 mmHg 76%
    06:00 +2°C° 0.1 mm 6 mps 755 mmHg 72%
    07:00 0°C° 0 mm 7 mps 756 mmHg 72%
    08:00 0°C° 0 mm 7 mps 756 mmHg 72%
    09:00 0°C° 0 mm 7 mps 757 mmHg 71%
    10:00 +2°C° 0 mm 7 mps 757 mmHg 67%
    11:00 +2°C° 0 mm 8 mps 758 mmHg 63%
    12:00 +4°C° 0 mm 8 mps 758 mmHg 58%
    13:00 +3°C° 0 mm 9 mps 758 mmHg 60%
    14:00 +2°C° 0 mm 9 mps 758 mmHg 61%
    15:00 +2°C° 0 mm 9 mps 758 mmHg 62%
    16:00 +2°C° 0 mm 9 mps 759 mmHg 64%
    17:00 +1°C° 0 mm 9 mps 759 mmHg 66%
    18:00 +1°C° 0 mm 9 mps 760 mmHg 68%
    19:00 0°C° 0 mm 9 mps 760 mmHg 69%
    20:00 0°C° 0 mm 9 mps 760 mmHg 70%
    21:00 0°C° 0 mm 9 mps 761 mmHg 70%
    22:00 0°C° 0 mm 9 mps 761 mmHg 70%
    23:00 0°C° 0 mm 9 mps 761 mmHg 70%

    26 November, Sunday

    Time Temperature Precipitation Wind Pressure Humidity
    00:00 0°C° 0 mm 9 mps 761 mmHg 70%
    01:00 0°C° 0 mm 9 mps 761 mmHg 72%
    02:00 0°C° 0 mm 10 mps 761 mmHg 74%
    03:00 0°C° 0 mm 10 mps 761 mmHg 76%
    04:00 +1°C° 0 mm 10 mps 761 mmHg 77%
    05:00 +1°C° 0 mm 9 mps 761 mmHg 79%
    06:00 +1°C° 0 mm 9 mps 761 mmHg 81%
    07:00 +1°C° 0 mm 9 mps 762 mmHg 81%
    08:00 +1°C° 0 mm 9 mps 762 mmHg 81%
    09:00 +1°C° 0 mm 9 mps 763 mmHg 81%
    10:00 +2°C° 0 mm 8 mps 763 mmHg 77%
    11:00 +4°C° 0 mm 8 mps 763 mmHg 72%
    12:00 +4°C° 0 mm 8 mps 763 mmHg 68%
    13:00 +4°C° 0 mm 8 mps 763 mmHg 69%
    14:00 +4°C° 0 mm 7 mps 763 mmHg 69%
    15:00 +4°C° 0 mm 7 mps 763 mmHg 69%
    16:00 +3°C° 0 mm 7 mps 764 mmHg 71%
    17:00 +3°C° 0 mm 7 mps 764 mmHg 73%
    18:00 +2°C° 0 mm 7 mps 764 mmHg 76%
    19:00 +2°C° 0 mm 7 mps 765 mmHg 77%
    20:00 +2°C° 0 mm 7 mps 765 mmHg 79%
    21:00 +2°C° 0 mm 7 mps 765 mmHg 81%
    22:00 0°C° 0 mm 7 mps 765 mmHg 82%
    23:00 0°C° 0 mm 7 mps 765 mmHg 83%

    27 November, Monday

    Time Temperature Precipitation Wind Pressure Humidity
    00:00 +1°C° 0 mm 6 mps 765 mmHg 85%
    01:00 +1°C° 0 mm 6 mps 765 mmHg 86%
    02:00 -1°C° 0 mm 6 mps 765 mmHg 86%
    03:00 -1°C° 0 mm 6 mps 765 mmHg 87%
    04:00 -1°C° 0 mm 6 mps 764 mmHg 86%
    05:00 -1°C° 0 mm 6 mps 764 mmHg 85%
    06:00 -1°C° 0 mm 6 mps 764 mmHg 85%
    07:00 +1°C° 0 mm 6 mps 763 mmHg 82%
    08:00 +2°C° 0 mm 7 mps 762 mmHg 80%
    09:00 +3°C° 0 mm 7 mps 762 mmHg 78%
    10:00 +4°C° 0 mm 8 mps 761 mmHg 75%
    11:00 +5°C° 0 mm 8 mps 760 mmHg 72%
    12:00 +6°C° 0 mm 9 mps 759 mmHg 69%
    13:00 +6°C° 0.7 mm 9 mps 758 mmHg 74%
    14:00 +6°C° 0.7 mm 9 mps 756 mmHg 79%
    15:00 +5°C° 0.7 mm 10 mps 755 mmHg 84%
    16:00 +5°C° 0.6 mm 10 mps 754 mmHg 84%
    17:00 +5°C° 0.6 mm 10 mps 753 mmHg 83%
    18:00 +6°C° 0.6 mm 11 mps 752 mmHg 82%
    19:00 +4°C° 0.8 mm 11 mps 750 mmHg 83%
    20:00 +4°C° 0.8 mm 11 mps 749 mmHg 84%
    21:00 +4°C° 0.8 mm 12 mps 748 mmHg 84%
    22:00 +4°C° 1 mm 11 mps 747 mmHg 84%
    23:00 +3°C° 1 mm 10 mps 747 mmHg 84%
    Show more